Starlink 3151

operational
NORAD ID: 49408 Int'l Des: 2021-104 Owner: SPXS Country: US Constellation: starlink
LEOCIRCULAR

About Starlink 3151

Description loading...

Live Position

Loading 3D Globe...

Upcoming Passes

Altitude History

Altitude vs Time

uPlot chart will show altitude changes over time

Two-Line Element Set

1 49408U 21104A 25257.38182402 -.00001079 00000-0 -49713-4 0 9999
2 49408 53.2177 300.6288 0001196 86.1355 273.9774 15.08833889212012
Epoch: Sep 14, 2025 • Age: 24 hours

Current Status

Altitude 545.3 km
Velocity 7.59 km/s
Sub-Earth Point -18.85°S, 153.32°E
Launch Date Nov 13, 2021
Age 3.8 years
Type internet

Technical Details

Classification Payload
Mass 290.00 kg
Dry Mass 270.00 kg
Total Mass 290.00 kg
Length 0.20 m
Diameter 2.80 m
Span 9.00 m
Shape Box + pan
Manufacturer SPXS
Bus Type Starlink
Phase Status In Orbit
Owner/State SPXS/US

Large Constellations

Loading constellations...